Location: Newark
(48.9886°N, 1.2358°E)
Time: 03:59:57
(UTC+00:00)

Transit 4A - Pass Details

Date: 24 November 2019
Orbit: 870 x 975 km, 66.8° (Epoch: 09 December)

Event Time Altitude Azimuth Distance (km) Brightness Sun altitude
Exits shadow 06:05:34 13° 311° (NW) 2,376 9.5 -11.5°
Maximum altitude 06:10:28 40° 246° (WSW) 1,275 8.3 -10.8°
Drops below altitude 10° 06:15:49 10° 179° (S) 2,511 10.4 -10.0°
Sets 06:18:24 0° 172° (S) 3,443 11.3 -9.6°
